STARLINK-4809 (53857 NORAD) Tracking and Keplerian Element Data

This shows tracking and keplerian element data for the satellite.

Feedback or suggestion? Click here.




ElementValue
Catalog53857
NameSTARLINK-4809
Epoch Orbit1053
Epoch Day325.33334491
Epoch Year2022
RAAN305.6234
Inclination53.2173
Eccentricity0.0001109
Argument of Perigee97.6114
Mean Anonmoly297.6028
Mean Motion15.66654727
Decay Rate-0.01138846
L11 53857U 22114AR 22325.33334491 -.01138846 00000+0 -11760-1 0 9990
L22 53857 53.2173 305.6234 0001109 97.6114 297.6028 15.66654727 10535



Live tracking and technical data element details for STARLINK-4809 (NORAD 53857). STARLINK-4809 can be tracked NOW for your location showing map with azimuth and elevation plus other details from your city location.







IsCatalogInMostPopularTable: catalog: 53857, numindb: -1

Insert: records affected: 1


GetName: 53857 STARLINK-4809

Hit Count: inserted at: Thu, 08 Dec 2022 09:11:15 GMT